Weather in Toporok

Russia / Novgorod Oblast     58°33′06″N   33°28′40″E
temp.,
°C
wind,
m/s
gust,
m/s
humid.,
%
clouds,
%
prec.,
mm/h
press.,
hPa
HPBL,
m
7 march, sun
sun700:00−4sw71589100 0.9 9981177
03:00−2sw71592100 1.7 9931134
06:00−2sw61393100 1.9 988983
09:00−4w51268100 4.1 9881821
12:00−4w7135256 0.1 9892659
15:00−4w6115879 0.6 9892022
18:00−7wnw4107581 0.2 990882
21:00−7w6138590 0.6 9901238
8 march, mon
mon800:00−7wnw71391100 0.6 9911253
03:00−8nw51190100 1.2 994813
06:00−8nnw51089100 0.1 997701
09:00−9nnw5988100 0.3 1002642
12:00−9nnw4781100 0.1 1005671
15:00−9nnw5782100 0.1 1008741
18:00−11nnw4886100 0.1 1010663
21:00−14nnw389599 0.1 1013411
9 march, tue
tue900:00−16nnw269663 0.0 1015229
03:00−19nnw259635 0.0 1017142
06:00−21nnw23960 0.0 1018126
09:00−20n238932 0.0 1020227
12:00−14n23715 0.0 1020507
15:00−12n23632 0.0 1021776
18:00−14n22830 0.0 102135
21:00−18e22920 0.0 102429
10 march, wed
wed1000:00−19ese22930 0.0 102448
03:00−20ese22940 0.0 102542
06:00−21e22940 0.0 102559
09:00−19e23850 0.0 1027174
12:00−13e24700 0.0 1027368
15:00−10ese246616 0.0 1026555
18:00−12e228291 0.0 102666
21:00−15ese259096 0.0 1026115
11 march, thu
thu1100:00−16ese2590100 0.0 1025134
03:00−18ese379072 0.0 1025157
06:00−17ese39860 0.0 1023258
09:00−15ese410785 0.0 1022363
12:00−10se598693 0.1 1019514
15:00−7se598696 0.3 1016587
18:00−7se41090100 0.1 1013520
21:00−6sse51294100 0.3 1010564